Hourly Data Report for March 08, 2021

TORONTO CITY
ONTARIO
Current Station Operator: ECCC - MSC

43°40'00.000" N
79°24'00.000" W
112.50 m
6158355
71508
XTO

Download Data

Hourly Data (March 2021)
Hourly Data Report for March 8, 2021
TIME
LST
Temp Definition
°C
Dew Point Definition
°C
Rel Hum Definition
%
Precip. Amount Definition
mm

Wind Dir Definition
10's deg

Wind Spd Definition
km/h
Visibility Definition
km
Stn Press Definition
kPa
Hmdx Definition


Wind Chill Definition


Weather Definition


00:00 -4.9 -12.7 54 0.0       101.68     LegendNANA
01:00 -5.1 -12.6 56 0.0       101.66     LegendNANA
02:00 -5.8 -12.2 61 0.0       101.66     LegendNANA
03:00 -5.0 -12.7 55 0.0       101.62     LegendNANA
04:00 -6.1 -12.5 60 0.0       101.66     LegendNANA
05:00 -5.7 -12.5 58 0.0       101.63     LegendNANA
06:00 -4.7 -11.3 60 0.0       101.64     LegendNANA
07:00 -3.8 -10.5 60 0.0       101.61     LegendNANA
08:00 -2.8 -8.3 66 0.0       101.60     LegendNANA
09:00 -1.7 -6.1 72 0.0       101.53     LegendNANA
10:00 0.9 -4.9 65 0.0       101.45     LegendNANA
11:00 1.9 -5.0 60 0.0       101.38     LegendNANA
12:00 2.7 -5.2 56 0.0       101.29     LegendNANA
13:00 3.5 -5.0 54 0.0       101.16     LegendNANA
14:00 5.7 -5.4 45 0.0       101.04     LegendNANA
15:00 6.6 -4.4 45 0.0       100.93     LegendNANA
16:00 7.1 -3.5 47 0.0       100.81     LegendNANA
17:00 6.9 -2.2 52 0.0       100.76     LegendNANA
18:00 6.9 -1.9 53 0.0       100.81     LegendNANA
19:00 9.3 -2.0 45 0.0       100.81     LegendNANA
20:00 8.7 -1.5 49 0.0       100.81     LegendNANA
21:00 7.8 -1.3 53 0.0       100.82     LegendNANA
22:00 6.6 -1.2 58 0.0       100.83     LegendNANA
23:00 5.3 -1.2 63 0.0       100.83     LegendNANA

Notes on Data Quality.

Legend

  • E = Estimated
  • M = Missing
  • NA = Not Available*
  • [empty] = Indicates an unobserved value
Date modified: